Yakima, WA
on Wednesday, December 19, 2012

Wednesday
Previous Day Next Day
Daily Summary
 ActualAverageRecord
Temperature
Mean Temperature °F 28°F  
Max Temperature 34°F 35°F 51°F (2004)
Min Temperature 15°F 21°F -9°F (1984)
Degree Days
Heating Degree Days 40 37  
Month to date heating degree days 559 680  
Since 1 July heating degree days 1797 2213  
Cooling Degree Days 0 0  
Month to date cooling degree days 0 0  
Year to date cooling degree days 667 472  
Moisture
Dew Point 23°F   
Average Humidity 82    
Maximum Humidity 89    
Minimum Humidity 75    
Precipitation
Precipitation 0.01 in 0.05 in 0.46 in (1953)
Month to date precipitation 1.43 0.93  
Year to date precipitation 8.62 7.65  
Snow
Snow 0.50 in 0.40 in 4.60 in (1964)
Month to date snowfall 7.9 5.7  
Year to date snowfall 30.1 17.9  
Since 1 July snowfall 8.6 9.3  
Snow Depth 5.00 in   
Wind
Wind Speed 3 mph   
Max Wind Speed 14 mph   
Max Gust Speed 37 mph   
Visibility 8 miles   
Events Snow   

Key: T is trace of precipitation, MM is missing value
Source: NWS Daily Summary
Time(PST)TemperatureDew PointHumidity Pressure Visibility Wind DirectionWind SpeedGust SpeedPrecipitationEvents Conditions
12:53 AM 16.0°F 10.9°F 81% 30.04 in 9.0 miles NW 3.5 mph - N/A   Clear
1:53 AM 17.1°F 12.9°F 84% 30.05 in 8.0 miles Calm Calm - N/A   Mostly Cloudy
2:53 AM 17.1°F 12.0°F 81% 30.05 in 9.0 miles West 3.5 mph - N/A   Mostly Cloudy
3:53 AM 19.9°F 15.1°F 81% 30.04 in 10.0 miles WNW 3.5 mph - N/A   Overcast
4:53 AM 21.0°F 16.0°F 81% 30.03 in 10.0 miles Calm Calm - N/A   Overcast
5:53 AM 21.9°F 17.1°F 82% 30.02 in 10.0 miles WNW 3.5 mph - N/A   Mostly Cloudy
6:53 AM 21.9°F 17.1°F 82% 30.01 in 10.0 miles Calm Calm - N/A   Overcast
7:53 AM 21.9°F 17.1°F 82% 30.00 in 10.0 miles Calm Calm - N/A   Clear
8:53 AM 21.9°F 17.1°F 82% 29.99 in 10.0 miles Calm Calm - N/A   Mostly Cloudy
9:53 AM 25.0°F 19.0°F 78% 29.99 in 10.0 miles West 4.6 mph - N/A   Overcast
10:53 AM 28.0°F 21.0°F 75% 29.98 in 10.0 miles Calm Calm - N/A   Overcast
11:53 AM 28.9°F 21.9°F 75% 29.96 in 9.0 miles Calm Calm - N/A   Overcast
12:36 PM 30.2°F 23.0°F 75% 29.91 in 2.0 miles Calm Calm - 0.00 in Snow Light Snow
12:53 PM 30.0°F 23.0°F 75% 29.95 in 2.0 miles East 3.5 mph - 0.00 in Snow Light Snow
1:01 PM 30.2°F 24.8°F 80% 29.90 in 1.8 miles East 4.6 mph - 0.00 in Snow Light Snow
1:45 PM 30.2°F 24.8°F 80% 29.87 in 2.5 miles ESE 3.5 mph - 0.00 in Snow Light Snow
1:53 PM 30.0°F 26.1°F 85% 29.91 in 4.0 miles Calm Calm - 0.00 in   Overcast
2:07 PM 30.2°F 26.6°F 86% 29.86 in 1.8 miles Calm Calm - 0.00 in Snow Light Snow
2:53 PM 30.9°F 28.0°F 89% 29.90 in 1.2 miles WNW 4.6 mph - 0.01 in Snow Light Snow
3:27 PM 32.0°F 28.4°F 87% 29.84 in 2.0 miles West 4.6 mph - 0.00 in Snow Light Snow
3:53 PM 32.0°F 28.0°F 85% 29.87 in 5.0 miles WNW 5.8 mph - 0.00 in   Overcast
4:53 PM 32.0°F 28.0°F 85% 29.86 in 7.0 miles WNW 6.9 mph - 0.00 in Snow Light Snow
5:53 PM 32.0°F 28.0°F 85% 29.85 in 10.0 miles West 5.8 mph - 0.00 in   Overcast
6:53 PM 33.1°F 28.0°F 82% 29.84 in 10.0 miles WSW 4.6 mph - N/A   Overcast
7:53 PM 33.1°F 28.9°F 85% 29.83 in 10.0 miles WSW 5.8 mph - N/A   Overcast
8:53 PM 33.1°F 28.9°F 85% 29.83 in 10.0 miles SW 4.6 mph - N/A   Overcast
9:53 PM 33.1°F 30.0°F 89% 29.81 in 10.0 miles West 4.6 mph - N/A   Overcast
10:53 PM 33.1°F 30.0°F 89% 29.80 in 10.0 miles WSW 4.6 mph - N/A   Overcast
11:53 PM 33.1°F 30.0°F 89% 29.78 in 8.0 miles West 3.5 mph - N/A   Overcast
Moon Phase
Dec. 19 Dec. 20 Dec. 28 Jan. 04 Jan. 11
Sunrise:07:42 AM (PST) Moon Rise:11:30 AM (PST)
Sunset:04:16 PM (PST) Moon Set:No Moon Set/

Copyright © 2014 The Weather Underground, Inc.